Wind_Speed
19 20 21 22 24 26 28 30 28 28 30 34 35 37 37 40 37 35 33 35 36 37 39 37 35 36 37 38 38 38 39 36 33 33 31 34 37 39 41 39 38 40 40 39 37
23 23 24 25 26 28 29 29 29 31 35 35 37 38 37 39 35 34 34 34 36 35 37 37 36 35 37 35 34 34 33 31 31 30 31 32 36 38 40 39 39 40 40 37 36
25 26 26 27 28 28 29 31 32 35 36 37 35 37 39 38 37 34 33 33 35 35 35 32 33 34 34 33 34 32 28 31 33 36 33 35 35 39 38 35 36 39 37 37 38
26 26 27 28 29 31 34 36 36 36 36 34 33 36 40 38 35 33 32 31 32 33 33 31 30 32 32 29 31 29 27 32 31 33 36 34 38 39 38 36 35 35 38 39 40
29 28 29 31 32 33 34 36 37 38 34 33 34 38 38 38 36 33 31 30 31 31 30 30 28 30 30 26 29 29 27 32 36 37 38 36 37 43 37 39 38 39 39 41 44
30 31 32 31 32 34 36 38 39 38 37 35 36 38 36 37 35 33 31 30 30 29 29 29 26 28 26 25 25 26 24 24 31 36 37 36 37 40 37 40 44 43 44 44 42
29 31 33 34 34 37 40 39 41 40 37 36 36 36 35 36 35 34 33 31 30 28 29 28 26 26 26 23 22 24 26 28 29 26 30 36 32 37 40 38 35 37 42 45 45
30 32 35 36 39 43 43 41 40 37 34 34 36 34 35 35 35 35 34 32 31 29 29 28 25 25 26 23 22 21 21 21 24 22 21 23 30 36 39 41 40 38 38 41 41
38 39 40 43 43 44 40 40 38 35 32 32 33 32 32 34 35 34 33 32 31 30 31 29 27 26 27 24 23 22 19 18 19 23 24 19 18 28 40 41 40 42 43 43 43
43 45 48 50 46 42 40 37 33 31 31 29 30 30 30 33 34 35 35 34 32 32 32 30 29 28 28 26 25 23 20 17 17 19 20 21 18 20 30 39 40 43 42 42 44
46 48 50 48 42 39 36 33 30 31 29 28 29 30 32 34 34 35 34 35 34 34 34 32 31 29 30 29 28 25 23 19 20 20 15 18 21 17 24 27 36 41 39 41 45
47 46 43 40 35 35 32 28 29 29 28 29 29 31 33 36 36 35 35 36 36 36 35 35 33 34 32 32 30 28 27 24 23 23 22 18 16 14 19 24 27 28 38 40 43
42 41 39 34 33 31 31 30 31 28 29 31 31 33 35 38 37 36 37 36 36 36 38 37 36 36 36 34 32 32 30 29 28 28 28 24 23 20 17 17 22 24 26 31 41
37 34 32 31 31 34 34 33 31 31 33 32 34 35 36 36 39 38 38 39 38 38 39 38 37 36 36 34 36 35 35 35 33 33 32 30 30 27 24 22 19 20 25 26 31
33 32 34 33 36 34 34 32 34 34 38 36 34 34 36 38 38 38 37 38 38 38 39 39 38 39 38 37 38 39 40 39 38 37 38 34 34 31 30 29 27 25 23 22 29
34 35 38 37 36 35 35 36 37 37 41 39 38 38 39 41 43 44 43 42 42 42 42 40 40 40 41 42 42 42 40 41 42 42 42 35 33 34 31 30 29 30 29 28 25
39 41 41 39 39 38 38 38 41 43 42 41 40 42 43 44 45 45 44 43 42 42 40 41 40 39 40 41 42 42 41 43 43 42 40 37 34 31 28 26 28 29 30 31 32
43 43 41 41 42 40 41 43 43 43 43 44 44 44 46 48 47 45 45 44 43 43 43 43 41 39 40 40 43 43 43 43 44 43 42 41 39 33 31 30 29 28 28 31 34
43 43 45 45 45 44 44 45 43 43 45 47 48 48 49 49 49 47 46 45 44 44 44 45 44 42 42 42 42 44 45 42 44 46 46 46 43 40 37 35 34 35 34 33 33
47 47 49 48 47 49 49 48 48 49 49 49 49 49 49 50 50 47 47 47 44 45 45 46 46 45 45 44 45 45 45 46 46 47 49 50 48 44 41 40 40 40 41 40 39
50 50 51 51 52 52 52 51 51 51 51 49 49 49 49 51 49 47 49 47 46 46 48 47 48 47 46 46 46 47 48 49 49 51 53 54 53 50 49 48 48 47 46 47 48
53 54 53 54 54 54 54 52 51 51 50 50 49 49 50 51 50 50 51 50 48 45 45 46 47 47 45 47 48 49 49 50 53 54 53 55 58 55 54 53 52 51 51 52 52
57 56 57 59 58 55 53 53 53 51 50 50 50 51 50 50 51 49 47 45 44 42 43 44 46 45 46 47 48 50 51 52 52 53 56 55 58 57 55 51 50 51 51 53 55
56 58 59 58 56 54 54 53 52 51 51 51 51 50 48 48 46 45 42 42 41 40 41 43 45 45 47 48 49 48 50 53 56 58 59 60 57 58 57 55 53 51 52 52 53
57 59 56 53 51 52 52 52 50 50 50 50 49 48 46 45 44 43 41 41 41 41 43 45 47 47 47 47 48 49 50 53 55 56 61 55 57 51 54 54 53 54 55 56 57
55 48 47 48 48 48 46 45 45 48 47 46 48 47 42 41 41 39 42 41 42 43 44 45 46 46 47 47 48 49 48 56 55 57 59 58 60 54 58 61 59 60 63 64 64
56 50 47 46 45 44 42 43 43 45 45 44 43 44 40 41 41 41 42 42 42 43 43 44 44 46 45 49 51 52 50 55 59 58 60 63 63 64 67 68 68 67 65 65 66
Wind_Direction
275 280 290 296 297 297 300 303 301 304 309 310 309 309 308 305 301 300 297 294 292 292 291 294 296 297 297 297 294 290 275 261 256 255 251 243 237 238 240 239 239 242 239 236 237
285 290 293 295 297 300 301 299 299 303 307 310 309 307 305 301 298 296 295 291 292 293 289 290 297 300 298 301 301 292 279 259 254 254 248 244 239 239 237 239 239 240 243 242 240
290 292 295 297 299 299 298 301 303 306 308 310 307 304 303 300 297 294 292 291 291 292 288 290 294 294 297 302 302 300 282 260 254 250 243 239 240 237 238 238 239 237 241 242 236
292 294 296 297 297 298 298 300 303 305 306 307 302 301 301 297 294 291 290 291 293 293 291 291 293 295 298 302 302 299 282 266 257 264 257 243 237 240 233 236 238 238 234 237 238
292 294 295 296 297 299 301 302 304 305 305 303 301 298 296 293 291 291 292 294 295 295 292 290 293 296 298 300 302 301 287 271 258 254 251 255 238 241 237 231 231 232 232 233 234
288 289 292 296 299 301 303 305 306 305 305 303 298 295 291 288 288 288 289 291 294 294 292 290 294 296 297 298 306 305 300 285 280 263 255 255 246 238 240 235 229 234 235 237 236
287 289 292 296 301 306 308 309 308 305 302 297 293 292 288 285 285 287 287 289 291 292 291 293 293 293 295 300 303 313 292 279 287 267 254 258 252 246 243 243 236 233 231 236 241
288 291 294 298 305 307 307 307 304 297 294 293 294 291 288 287 286 285 287 288 289 289 289 290 291 292 294 299 299 301 318 299 280 277 254 271 252 250 248 245 243 241 238 238 243
295 294 297 302 306 307 304 302 298 292 290 291 291 292 290 290 287 288 285 284 284 286 285 287 289 290 291 294 294 299 301 321 295 271 259 258 255 243 248 245 238 235 237 237 238
293 293 293 299 304 301 298 294 289 286 287 290 290 290 289 285 284 286 283 281 280 280 282 285 285 286 285 289 289 291 295 303 307 301 276 276 263 257 235 241 242 241 239 240 239
291 291 293 296 296 294 289 285 286 287 287 288 287 288 286 285 284 281 281 279 277 278 279 282 282 282 282 284 285 285 286 290 288 288 303 291 284 280 265 238 238 242 241 241 238
291 292 293 292 289 286 282 282 281 286 287 288 288 288 286 285 281 280 279 277 275 275 276 277 277 279 280 280 277 279 282 282 280 279 280 284 289 284 261 265 257 245 240 240 243
290 289 289 285 285 283 282 282 282 281 280 281 282 282 283 283 281 277 274 274 273 273 273 275 276 275 276 275 270 271 275 277 277 273 276 279 277 275 273 267 258 255 252 242 240
285 280 281 282 283 285 284 283 277 277 278 278 277 280 282 280 277 275 275 272 272 272 274 274 273 274 274 271 268 269 272 272 270 268 269 270 270 270 270 269 268 265 252 248 248
275 273 280 282 285 282 280 274 274 275 278 287 287 286 283 279 277 271 272 271 272 272 274 275 275 273 271 268 267 268 271 270 269 267 266 266 265 262 263 262 264 262 264 261 247
269 276 284 279 279 277 274 272 272 272 275 280 282 282 281 279 278 277 274 273 273 273 273 273 271 271 270 267 266 266 267 266 266 267 266 264 262 259 258 262 261 262 261 261 258
275 277 273 272 274 272 271 270 272 272 279 277 279 279 280 279 277 276 274 274 274 274 275 273 271 269 266 266 267 266 265 264 264 265 265 264 259 255 261 262 266 266 264 261 259
273 270 268 268 270 268 269 268 269 273 273 273 274 276 277 278 276 275 274 274 274 275 276 275 273 268 266 266 265 265 264 264 267 265 262 262 261 262 263 267 270 270 271 269 266
269 267 265 270 267 265 268 266 269 271 272 272 273 274 276 276 274 273 273 273 273 275 276 276 273 272 270 266 263 264 265 266 265 264 262 262 261 262 270 273 273 272 273 277 275
268 265 266 268 265 265 266 268 270 271 272 272 272 273 274 275 274 275 275 276 275 275 275 276 275 273 271 268 266 265 265 264 265 265 264 261 261 265 268 271 273 275 277 276 275
265 266 267 265 265 266 267 270 270 272 272 273 273 274 275 275 277 278 278 279 278 279 279 278 276 275 272 269 268 266 265 264 263 263 264 264 264 265 267 267 267 269 269 273 276
268 267 267 267 268 269 269 272 272 272 273 273 273 276 276 277 278 278 281 282 284 282 279 277 275 275 272 269 267 266 266 265 265 265 264 265 263 266 266 265 265 266 267 267 269
267 268 266 268 272 271 270 272 272 273 273 275 275 276 277 278 281 284 286 287 284 280 278 277 276 276 273 271 269 268 266 263 262 262 262 264 266 265 264 264 265 267 267 266 265
267 268 268 273 272 271 272 273 274 274 275 276 277 279 281 282 284 287 287 284 282 278 276 275 274 272 270 268 267 265 266 267 265 263 264 264 264 264 266 266 263 260 260 258 258
265 264 272 274 274 274 276 279 279 279 278 279 281 282 281 284 284 285 281 279 277 276 273 271 270 270 269 268 267 267 268 268 267 268 268 269 268 267 267 267 265 264 262 259 257
263 271 274 271 275 278 280 282 282 280 279 281 282 279 280 280 277 276 275 275 275 273 272 271 272 270 269 269 269 268 270 271 275 274 274 273 269 267 264 261 258 258 257 257 255
267 262 271 271 276 275 279 277 280 281 280 280 280 280 276 273 274 276 277 277 275 275 274 273 271 270 270 270 271 272 273 275 274 274 273 271 270 265 266 266 264 260 259 259 260
Height
5787 5786 5786 5785 5785 5783 5782 5780 5778 5776 5774 5771 5768 5765 5761 5759 5756 5752 5749 5747 5744 5741 5738 5734 5732 5730 5727 5725 5720 5715 5714 5716 5719 5722 5725 5726 5729 5731 5735 5740 5744 5745 5749 5752 5755
5782 5781 5781 5780 5779 5778 5776 5774 5772 5770 5768 5765 5762 5759 5755 5751 5748 5745 5743 5739 5737 5735 5733 5730 5726 5722 5721 5717 5712 5709 5707 5710 5711 5712 5715 5717 5721 5724 5728 5732 5736 5739 5743 5748 5751
5777 5776 5775 5774 5773 5771 5770 5768 5765 5763 5760 5758 5755 5752 5748 5744 5742 5738 5735 5732 5731 5728 5726 5723 5720 5718 5714 5709 5707 5705 5703 5702 5704 5703 5706 5710 5713 5716 5720 5725 5728 5731 5734 5738 5743
5771 5769 5769 5768 5766 5764 5763 5761 5759 5756 5752 5750 5746 5743 5740 5738 5736 5732 5729 5726 5724 5722 5720 5716 5714 5712 5709 5704 5702 5700 5697 5696 5698 5697 5699 5703 5705 5707 5712 5719 5720 5724 5727 5730 5733
5765 5764 5763 5761 5759 5758 5756 5753 5750 5748 5744 5741 5738 5736 5732 5730 5728 5725 5722 5720 5718 5717 5715 5712 5709 5707 5703 5700 5697 5694 5691 5689 5689 5689 5691 5695 5699 5699 5705 5709 5713 5714 5718 5721 5723
5757 5757 5756 5753 5752 5750 5747 5746 5743 5740 5738 5735 5731 5728 5725 5723 5721 5719 5716 5714 5713 5711 5709 5707 5704 5702 5699 5696 5692 5689 5686 5684 5682 5682 5683 5686 5691 5693 5700 5696 5700 5707 5709 5711 5715
5749 5749 5748 5747 5743 5741 5740 5736 5736 5733 5729 5727 5723 5719 5717 5716 5714 5712 5710 5708 5707 5705 5703 5701 5699 5697 5694 5692 5688 5685 5682 5679 5677 5674 5678 5678 5683 5685 5688 5688 5693 5697 5699 5704 5707
5742 5742 5741 5738 5735 5733 5730 5728 5726 5724 5721 5718 5715 5712 5710 5709 5707 5705 5703 5702 5701 5699 5698 5695 5693 5692 5689 5687 5685 5682 5679 5675 5673 5671 5672 5674 5677 5676 5678 5681 5686 5689 5691 5694 5698
5736 5733 5732 5729 5725 5723 5721 5720 5718 5716 5712 5709 5707 5705 5704 5703 5701 5699 5697 5696 5694 5693 5691 5690 5688 5686 5684 5683 5681 5678 5675 5673 5669 5668 5667 5669 5670 5669 5668 5672 5677 5679 5682 5687 5693
5726 5723 5721 5720 5717 5714 5712 5710 5708 5707 5704 5701 5699 5700 5698 5696 5693 5692 5690 5688 5687 5686 5685 5684 5682 5680 5679 5678 5676 5674 5672 5670 5667 5664 5663 5662 5664 5661 5661 5666 5670 5672 5677 5680 5684
5715 5714 5712 5709 5707 5705 5703 5701 5702 5699 5697 5694 5692 5690 5690 5689 5686 5684 5683 5681 5680 5679 5678 5677 5676 5674 5673 5672 5670 5669 5668 5667 5664 5661 5661 5658 5658 5659 5658 5659 5661 5666 5671 5674 5676
5705 5703 5702 5700 5697 5696 5693 5691 5691 5691 5689 5686 5684 5683 5682 5680 5678 5677 5676 5675 5673 5671 5670 5670 5669 5667 5666 5665 5664 5663 5662 5661 5660 5657 5657 5656 5655 5656 5655 5655 5656 5658 5662 5666 5669
5694 5693 5692 5690 5689 5688 5686 5684 5683 5681 5680 5677 5676 5675 5673 5673 5670 5668 5667 5666 5665 5663 5662 5661 5662 5660 5659 5658 5658 5656 5656 5655 5655 5652 5650 5651 5650 5651 5652 5652 5652 5653 5655 5658 5661
5685 5683 5682 5681 5682 5680 5678 5677 5675 5673 5670 5670 5667 5665 5664 5662 5660 5660 5658 5658 5656 5655 5653 5653 5653 5652 5651 5650 5649 5649 5648 5647 5647 5646 5645 5646 5645 5644 5645 5647 5648 5648 5649 5650 5653
5674 5673 5673 5669 5671 5670 5670 5666 5666 5665 5660 5662 5659 5657 5655 5654 5652 5650 5649 5647 5646 5645 5646 5644 5644 5643 5642 5642 5641 5642 5640 5639 5638 5637 5636 5638 5638 5639 5640 5640 5642 5643 5643 5644 5645
5662 5662 5663 5663 5661 5660 5658 5657 5656 5655 5650 5651 5650 5648 5646 5643 5641 5640 5640 5639 5637 5635 5635 5634 5634 5634 5633 5631 5630 5631 5631 5629 5628 5627 5625 5629 5630 5630 5632 5634 5635 5636 5637 5638 5639
5652 5651 5652 5651 5650 5649 5648 5647 5647 5642 5644 5642 5640 5638 5636 5633 5631 5630 5629 5628 5626 5624 5624 5623 5622 5623 5623 5622 5621 5621 5621 5619 5618 5618 5618 5617 5620 5623 5624 5626 5626 5627 5629 5630 5631
5641 5641 5640 5639 5639 5638 5637 5635 5634 5633 5632 5631 5630 5628 5625 5623 5621 5619 5618 5618 5616 5614 5613 5612 5613 5612 5614 5613 5612 5610 5611 5611 5607 5608 5608 5607 5608 5614 5616 5617 5618 5618 5619 5621 5622
5629 5629 5629 5628 5627 5626 5626 5624 5624 5623 5621 5620 5618 5616 5615 5613 5610 5608 5608 5607 5607 5605 5603 5600 5601 5601 5601 5601 5602 5601 5600 5601 5598 5597 5597 5598 5600 5603 5605 5606 5606 5607 5609 5611 5612
5618 5618 5618 5616 5616 5615 5613 5613 5611 5611 5609 5607 5606 5605 5604 5602 5599 5598 5597 5598 5597 5594 5591 5590 5589 5590 5590 5590 5590 5590 5590 5589 5588 5586 5585 5586 5589 5592 5595 5594 5595 5596 5596 5598 5600
5605 5605 5605 5604 5603 5602 5601 5601 5600 5598 5597 5596 5595 5593 5593 5590 5589 5588 5586 5587 5585 5584 5581 5579 5578 5581 5579 5578 5578 5577 5576 5576 5575 5574 5573 5574 5578 5582 5582 5581 5582 5583 5585 5585 5586
5593 5593 5594 5592 5591 5590 5590 5589 5589 5586 5585 5584 5583 5582 5580 5579 5577 5576 5576 5574 5573 5571 5569 5566 5564 5566 5567 5564 5564 5563 5563 5563 5559 5562 5560 5559 5567 5569 5568 5567 5567 5567 5569 5571 5573
5579 5580 5580 5579 5579 5578 5578 5577 5575 5575 5574 5573 5573 5571 5569 5568 5565 5565 5564 5562 5559 5557 5555 5555 5552 5553 5553 5553 5551 5550 5551 5549 5547 5545 5544 5544 5555 5552 5552 5553 5552 5551 5552 5554 5556
5565 5566 5567 5566 5566 5566 5565 5565 5564 5564 5563 5562 5561 5560 5559 5557 5555 5553 5551 5549 5547 5544 5542 5540 5540 5539 5538 5536 5536 5537 5536 5534 5531 5529 5531 5532 5537 5536 5536 5536 5535 5534 5534 5536 5538
5552 5553 5555 5553 5555 5554 5553 5555 5553 5554 5553 5551 5550 5549 5547 5545 5542 5540 5538 5536 5534 5531 5529 5526 5525 5524 5523 5522 5522 5523 5524 5517 5516 5517 5510 5524 5517 5530 5519 5517 5517 5515 5517 5517 5520
5539 5541 5542 5543 5542 5542 5542 5544 5542 5540 5540 5539 5538 5535 5534 5532 5529 5527 5525 5523 5520 5517 5514 5512 5510 5510 5509 5507 5507 5509 5514 5503 5505 5502 5497 5499 5499 5511 5500 5494 5497 5496 5495 5497 5499
5527 5528 5528 5530 5530 5530 5531 5529 5529 5528 5528 5527 5524 5523 5522 5519 5516 5515 5513 5511 5508 5505 5501 5499 5497 5495 5496 5492 5493 5497 5501 5492 5487 5484 5479 5477 5483 5484 5476 5474 5476 5478 5480 5483 5483